Regional Weather Roundup
Issued by NWS

Home | Current Version | Previous Version | Graphics & Text | Print | Product List | Glossary On
Versions: 1 2 3 4 5 6 7 8 9 10 11 12 13 14 15 16 17 18 19 20 21 22 23 24 25 26 27 28 29 30 31 32 33 34 35 36 37 38 39 40 41 42 43 44 45 46 47 48 49
000
ASUS45 KCYS 182310
RWRWY

WYOMING REGIONAL WEATHER ROUNDUP
NATIONAL WEATHER SERVICE CHEYENNE WY
400 PM MST THU DEC 18 2014

NOTE:  "FAIR" INDICATES FEW OR NO CLOUDS BELOW 12,000 FEET
WITH NO SIGNIFICANT WEATHER AND/OR OBSTRUCTIONS TO VISIBILITY.

WYZ001-190000-
YELLOWSTONE NATIONAL PARK

CITY           SKY/WX    TMP DP  RH WIND       PRES   REMARKS
LK YELLOWSTONE   N/A     24  18  77 VRB5      30.05R WCI  18
W YELLOWSTONE  NOT AVBL

$$
WYZ002>013-054>058-071-098>099-190000-
NORTHERN WYOMING

CITY           SKY/WX    TMP DP  RH WIND       PRES   REMARKS
JACKSON        SNOW      25  25 100 CALM      30.08R
CODY           FAIR      34  19  55 W6        29.98S WCI  29
GREYBULL       FAIR      25  17  72 E6        30.04S WCI  18
WORLAND        FAIR      16  11  80 CALM      30.04S
SHERIDAN       FAIR      36  21  54 SE6       29.95S WCI  31
BUFFALO        FAIR      36  15  42 S9        29.97S WCI  29
GILLETTE       FAIR      34  21  59 SW10      29.97R WCI  26
HULETT           N/A     36  28  75 MISG        N/A
NEWCASTLE      FAIR      37  27  65 CALM      30.00S

$$
WYZ014>020-022>026-101>103-190000-
CENTRAL WYOMING

CITY           SKY/WX    TMP DP  RH WIND       PRES   REMARKS
BIG PINEY      CLOUDY    31  13  47 N3        30.07R
PINEDALE       FAIR      28  18  64 NW7       30.08R WCI  21
DUBOIS         FAIR      28  14  54 NW14      30.01R WCI  17
LANDER         FAIR      11   6  81 CALM      30.04R
RIVERTON       CLOUDY    13   9  84 CALM      30.06R
CASPER         FAIR      26  17  68 SW12      30.03R WCI  16
DOUGLAS        FAIR      33  21  61 NW6       30.03R WCI  28

$$
WYZ021-027>030-104>119-190000-
SOUTHERN WYOMING

CITY           SKY/WX    TMP DP  RH WIND       PRES   REMARKS
EVANSTON       FAIR      33  20  58 SW14      30.09R WCI  23
KEMMERER       MOCLDY    30  21  69 W8        30.09R WCI  23
FORT BRIDGER   CLOUDY    33  24  68 NW10      30.12R WCI  25
ROCK SPRINGS   MOCLDY    31  20  63 W6        30.08R WCI  25
DIXON          CLOUDY    26  22  82 CALM      30.14R
RAWLINS        FAIR      26  19  74 SW9       30.07R WCI  17
SARATOGA       FAIR      27  19  74 W5        30.08S WCI  21
LARAMIE        FAIR      25  18  74 E6        30.01R WCI  18
CHEYENNE       FAIR      38  15  39 N9        30.01R WCI  31
TORRINGTON     FAIR      29  24  82 S5        30.02R WCI  24
PINE BLUFFS    FAIR      34  23  64 NW10      30.03R WCI  26

$$


USA.gov is the U.S. government's official web portal to all federal, state and local government web resources and services.